Location: Unspecified
(45.5315°N, 0.0000°E)
Time: 13:54:25
(UTC+00:00)

S-56A Canister/Altair - Visible Passes

Search period start: 04 April 2026 00:00
Search period end: 14 April 2026 00:00
Orbit: 632 x 2485 km, 38.9° (Epoch: 28 March)

Date Brightness Start Highest point End Pass type
(mag) Time Alt. Az. Time Alt. Az. Time Alt. Az.
6 Apr 11.8 04:56:13 10° SE 05:01:02 12° SE 05:06:01 10° ESE visible
10 Apr 11.3 04:34:08 10° S 04:42:45 21° SE 04:52:27 10° E visible
11 Apr 11.3 04:00:22 10° SSE 04:07:34 18° SE 04:15:39 10° E visible
12 Apr 11.3 03:27:12 10° SSE 03:32:28 14° SE 03:38:17 10° E visible
13 Apr 11.4 02:56:23 10° SE 02:57:28 10° ESE 02:58:35 10° ESE visible
